Location: Unspecified
(48.7670°N, 0.0000°E)
Time: 19:26:15
(UTC+00:00)

Vanguard 2 Rocket - Pass Details

Date: 26 June 2019
Orbit: 553 x 3327 km, 32.9° (Epoch: 20 August)

Event Time Altitude Azimuth Distance (km) Brightness Sun altitude
Rises 20:57:08 0° 226° (SW) 3,587 10.0 -6.8°
Reaches altitude 10° 20:59:44 10° 213° (SSW) 2,930 9.4 -7.1°
Maximum altitude 21:05:40 26° 159° (SSE) 2,563 8.7 -7.8°
Drops below altitude 10° 21:14:42 10° 109° (ESE) 4,599 10.0 -8.7°
Sets 21:20:05 0° 100° (E) 6,114 10.7 -9.2°
